Regional Weather Roundup
Issued by NWS

Home | Current Version | Previous Version | Graphics & Text | Print | Product List | Glossary On
Versions: 1 2 3 4 5 6 7 8 9 10 11 12 13 14 15 16 17 18 19 20 21 22 23 24 25 26 27 28 29 30 31 32 33 34 35 36 37 38 39 40 41 42 43 44 45 46 47 48 49 50
000
ASUS43 KOAX 240710
RWRNE

WEATHER ROUNDUP FOR NEBRASKA
NATIONAL WEATHER SERVICE OMAHA NE
100 AM CST FRI FEB 24 2017

NOTES: SATELLITE DATA IS BEING USED TO AUGMENT CLOUD COVER ABOVE
       12000 FEET.
       "FAIR" INDICATES FEW OR NO CLOUDS BELOW 12,000 FEET WITH NO
       SIGNIFICANT WEATHER AND/OR OBSTRUCTIONS TO VISIBILITY.

  * THESE STATIONS DO NOT REPORT WEATHER SUCH AS RAIN...SNOW OR FOG.

NEZ001>004-019>022-054>056-240800-
NEBRASKA PANHANDLE

CITY           SKY/WX    TMP DP  RH WIND       PRES   REMARKS
SCOTTSBLUFF    CLOUDY    22  17  81 N8        29.90R WCI  12
ALLIANCE       LGT SNOW  20  18  92 N16       29.87S FOG     WCI   6
CHADRON        LGT SNOW  23  20  88 NE14      29.96R FOG     WCI  11
KIMBALL        LGT SNOW  21  20  98 N10       29.83S WCI   9
SIDNEY         LGT SNOW  20  17  88 N20       29.84R FOG     WCI   4
$$

NEZ057>060-069>072-079>082-240800-
SOUTHWEST NEBRASKA

CITY           SKY/WX    TMP DP  RH WIND       PRES   REMARKS
NORTH PLATTE   LGT SNOW  24  19  81 N22G29    29.80R WCI   9
IMPERIAL       LGT SNOW  23  20  88 N17       29.82S FOG     WCI   9
LEXINGTON      CLOUDY    26  23  87 N18G25    29.76S WCI  13
MCCOOK         CLOUDY    27  23  85 N16       29.78S WCI  15
OGALLALA       LGT SNOW  25  21  85 N18G29    29.83S WCI  12
$$

NEZ005>010-023>029-035>040-094-240800-
NORTH CENTRAL NEBRASKA

CITY           SKY/WX    TMP DP  RH WIND       PRES   REMARKS
VALENTINE      CLOUDY    23  19  85 N18G25    29.89S FOG     WCI   9
AINSWORTH      CLOUDY    23  22  98 N29       29.85S WCI   6
BROKEN BOW     LGT SNOW  24  22  91 N25       29.76R VSB 3/4 WCI   8
O`NEILL        CLOUDY    26  25  96 N22G28    29.82S WCI  12
ORD            LGT SNOW  26  21  81 N20G31    29.76R WCI  12
THEDFORD       LGT SNOW  24  22  92 N20G26    29.84R WCI   9
$$

NEZ041-046>049-061>064-073>077-083>087-240800-
SOUTH CENTRAL NEBRASKA

CITY           SKY/WX    TMP DP  RH WIND       PRES   REMARKS
GRAND ISLAND   LGT SNOW  28  28 100 N21G28    29.71R FOG     WCI  15
AURORA         MIX PCPN  30  29  96 N20       29.68S WCI  17
HASTINGS       FRZ RAIN  29  27  92 N21       29.70S FOG     WCI  16
HEBRON         CLOUDY    32  30  95 N16       29.65S WCI  21
HOLDREGE       CLOUDY    27  25  91 N14G20    29.73R WCI  16
KEARNEY *      CLOUDY    27  23  86 N20       29.73R WCI  13
YORK           MIX PCPN  32  30  93 N20G25    29.66S WCI  20
$$

NEZ011>018-030>034-042>045-240800-
NORTHEAST NEBRASKA

CITY           SKY/WX    TMP DP  RH WIND       PRES   REMARKS
NORFOLK        LGT SNOW  28  24  85 N14G26    29.72S FOG     WCI  17
ALBION         LGT SNOW  28  24  85 N21G29    29.72S WCI  15
BLAIR          CLOUDY    33  32  96 N16G25    29.59R WCI  22
FREMONT        CLOUDY    32  32  99 N7        29.64S WCI  26
TEKAMAH        LGT SNOW  32  30  92 N22G30    29.65R FOG     WCI  19
WAYNE          LGT SNOW  28  27  96 N18G28    29.73F WCI  16
$$

NEZ050>053-065>068-078-088>093-240800-
SOUTHEAST NEBRASKA

CITY           SKY/WX    TMP DP  RH WIND       PRES   REMARKS
LINCOLN        CLOUDY    33  31  92 N18       29.63R WCI  22
OMAHA EPPLEY   FLURRIES  34  30  85 N20G25    29.59R WCI  23
BEATRICE       CLOUDY    33  33  99 N15       29.61R WCI  23
FALLS CITY     CLOUDY    38  38 100 NW12      29.51R WCI  30
NEBRASKA CITY  CLOUDY    34  34 100 N18       29.54R WCI  23
PLATTSMOUTH    CLOUDY    34  31  89 N12G22    29.56R WCI  25
$$

NEZ044-045-051>053-067-240800-
OMAHA AREA

CITY           SKY/WX    TMP DP  RH WIND       PRES   REMARKS
OMAHA EPPLEY   FLURRIES  34  30  85 N20G25    29.59R WCI  23
BLAIR          CLOUDY    33  32  96 N16G25    29.59R WCI  22
FREMONT        CLOUDY    32  32  99 N7        29.64S WCI  26
MILLARD        CLOUDY    35  33  90 N6        29.60R WCI  30
OFFUTT AFB     CLOUDY    34  31  90 N14       29.57R WCI  25
PLATTSMOUTH    CLOUDY    34  31  89 N12G22    29.56R WCI  25
WAHOO          CLOUDY    33  31  93 N22       29.63S WCI  20
$$




USA.gov is the U.S. government's official web portal to all federal, state and local government web resources and services.